Flag for Brazil Weather past 2 weeks in Palmas, Tocantins, Brazil

Now
72 °F

Light rain. Fog.


Feels Like: 67 °F
Forecast: 71 / 93 °F
Wind: No wind

Location: Carajas / Maraba

Current Time: Feb 27, 2015 at 9:44:37 AM

Latest Report: Feb 27, 2015 at 9:00 AM


Visibility: 3 mi

Pressure: 30.04 "Hg

Humidity: 94%

Dew point: 70 °F

Location of PalmasLocation

Historic Weather in Palmas — Graph

°F

Palmas temperature yesterday

Maximum temperature yesterday: 77 °F (at 12:00 PM)
Minimum temperature yesterday: 72 °F (at 8:00 AM)
Average temperature yesterday: 75 °F

Past Weeks' High & Low Weather Summary

 TemperatureHumidityPressure
High84 °F (Feb 13, 3:00 PM)100% (Feb 19, 8:00 AM)30.09 "Hg (Feb 19, 8:00 AM)
Low68 °F (Feb 19, 8:00 AM)58% (Feb 23, 4:00 PM)29.86 "Hg (Feb 17, 4:00 PM)
Average76 °F80%29.99 "Hg
* Reported Feb 12 8:00 AM — Feb 27 8:00 AM, Palmas, Weather by CustomWeather, © 2015

Note: Actual official high and low records may vary slightly from our data, if they occured in-between our weather recording intervals... More about our weather records

Advertising

Palmas weather history for previous 24 hours

 ConditionsComfort  
Time TempWeatherWind HumidityBarometerVisibility
8:00 AM
Fri, Feb 27
72 °FBroken clouds.No wind94%30.01 "HgN/A
12:00 AM72 °FThunderstorms. Passing clouds.2 mph94%29.95 "HgN/A
11:00 PM
Thu, Feb 26
73 °FThundershowers. Passing clouds.No wind89%29.95 "HgN/A
10:00 PM73 °FThundershowers. Passing clouds.No wind94%29.95 "HgN/A
8:00 PM73 °FClear.No wind89%29.89 "Hg10 mi
7:00 PM73 °FPassing clouds.No wind94%29.89 "HgN/A
6:00 PM75 °FPartly sunny.No wind89%29.86 "HgN/A
5:00 PM77 °FPartly sunny.2 mph83%29.86 "HgN/A
4:00 PM77 °FPartly sunny.3 mph83%29.89 "HgN/A
3:00 PM77 °FPartly sunny.2 mph83%29.92 "HgN/A
2:00 PM77 °FPartly sunny.3 mph83%29.98 "HgN/A
1:00 PM77 °FScattered clouds.7 mph79%29.98 "HgN/A
12:00 PM77 °FScattered clouds.5 mph83%30.04 "HgN/A
11:00 AM75 °FPartly sunny.6 mph83%30.04 "HgN/A
10:00 AM73 °FFog.6 mph89%30.04 "Hg3 mi
9:00 AM73 °FPartly sunny.5 mph89%30.04 "Hg5 mi
Weather by CustomWeather, © 2015

See weather overviewHow to use our weather pages